STARLINK-1352 (45536 NORAD) Tracking and Keplerian Element Data

This shows tracking and keplerian element data for the satellite.

Feedback or suggestion? Click here.




ElementValue
Catalog45536
NameSTARLINK-1352
Epoch Orbit572
Epoch Day145.75001157
Epoch Year2020
RAAN243.1169
Inclination52.9988
Eccentricity0.0003359
Argument of Perigee76.0732
Mean Anonmoly351.0401
Mean Motion15.42461819
Decay Rate0.03994817
L11 45536U 20025F 20145.75001157 .03994817 00000-0 78757-1 0 9996
L22 45536 52.9988 243.1169 0003359 76.0732 351.0401 15.42461819 5726

Live tracking and technical data element details for STARLINK-1352 (NORAD 45536). STARLINK-1352 can be tracked NOW for your location showing map with azimuth and elevation plus other details from your city location.

Track the satellite on the map from your city or location and see movement details for azimuth, elevation, latitude, longitude, range, height, and movement on the map or in text.







IsCatalogInMostPopularTable: catalog: 45536, numindb: 6
Update: records affected: 1



GetName: 45536 STARLINK-1352

Hit Count: updated at: Tue, 26 May 2020 02:47:44 GMT